Location: Dimond District
(37.8033°N, 122.2128°W)
Time: 18:03:11
(UTC+00:00)

ARGOS - Pass Details

Date: 03 August 2024
Orbit: 818 x 834 km, 98.4° (Epoch: 06 September)

Event Time Altitude Azimuth Distance (km) Brightness Sun altitude
Rises 12:31:26 0° 19° (NNE) 3,375 7.2 -8.5°
Reaches altitude 10° 12:33:53 10° 25° (NNE) 2,435 6.5 -8.1°
Maximum altitude 12:39:05 47° 99° (E) 1,080 4.2 -7.2°
Drops below altitude 10° 12:44:12 10° 173° (S) 2,410 5.4 -6.3°
Sets 12:46:37 0° 179° (S) 3,336 6.0 -5.8°
